FW6562 Weather Reports


time (UTC)temp
C
wind
direction
speed
KPH
gust
KPH
rain 1hr
cm
rain 24hr
cm
rain mn
cm
humidity
%
barometer
mb
20260508013704 15 192 0.0 0.0 0.00 0.00 0.00 75 1014.9
20260508013204 15 192 0.0 1.6 0.00 0.00 0.00 74 1014.9
20260508012704 15 192 0.0 3.2 0.00 0.00 0.00 74 1014.9
20260508012203 15 192 0.0 3.2 0.00 0.00 0.00 75 1015.0
20260508011706 15 192 1.6 1.6 0.00 0.00 0.00 74 1015.0
20260508010706 15 192 1.6 3.2 0.00 0.00 0.00 75 1014.9
20260508005703 16 190 4.8 3.2 0.00 0.00 0.00 74 1014.9
20260508005203 16 191 4.8 8.0 0.00 0.00 0.00 74 1015.0
20260508004704 16 190 1.6 8.0 0.00 0.00 0.00 73 1015.0
20260508004203 16 178 1.6 11.3 0.00 0.00 0.00 72 1015.0
20260508003704 16 195 0.0 8.0 0.00 0.00 0.00 72 1015.0
20260508003204 17 320 0.0 3.2 0.00 0.00 0.00 70 1015.0
20260508002204 17 333 0.0 0.0 0.00 0.00 0.00 69 1014.9
20260508001704 17 333 0.0 0.0 0.00 0.00 0.00 69 1014.9
20260508001203 17 333 0.0 1.6 0.00 0.00 0.00 69 1014.9
20260508000704 17 301 0.0 0.0 0.00 0.00 0.00 69 1015.0
20260508000205 17 343 0.0 3.2 0.00 0.00 0.00 69 1015.0
20260507235704 17 34 0.0 4.8 0.00 0.00 0.00 69 1015.0
20260507235204 17 9 0.0 3.2 0.00 0.00 0.00 69 1015.0
20260507234203 17 350 0.0 1.6 0.00 0.00 0.00 69 1015.0
20260507233203 17 348 0.0 1.6 0.00 0.00 0.00 69 1015.1
20260507232203 17 7 0.0 0.0 0.00 0.00 0.00 69 1015.1
20260507231203 17 7 0.0 0.0 0.00 0.00 0.00 69 1015.1
20260507230703 17 0 0.0 0.0 0.00 0.00 0.00 68 1015.1
20260507230203 17 14 0.0 0.0 0.00 0.00 0.00 68 1015.1
20260507225703 17 18 0.0 1.6 0.00 0.00 0.00 68 1015.1
20260507225204 17 358 0.0 1.6 0.00 0.00 0.00 68 1015.0
20260507224703 17 331 0.0 1.6 0.00 0.00 0.00 68 1015.0
20260507224204 17 327 0.0 0.0 0.00 0.00 0.00 68 1015.0
20260507223704 17 327 0.0 0.0 0.00 0.00 0.00 68 1014.9
20260507222704 17 327 0.0 0.0 0.00 0.00 0.00 68 1014.9
20260507222204 17 327 0.0 1.6 0.00 0.00 0.00 68 1015.0
20260507221704 17 325 0.0 1.6 0.00 0.00 0.00 68 1015.0
20260507221205 17 324 0.0 0.0 0.00 0.00 0.00 69 1015.0
20260507220703 17 328 0.0 0.0 0.00 0.00 0.00 69 1014.9
20260507220203 17 328 0.0 0.0 0.00 0.00 0.00 69 1014.9
20260507215704 17 328 0.0 0.0 0.00 0.00 0.00 69 1014.9
20260507215204 17 327 0.0 0.0 0.00 0.00 0.00 69 1014.8
20260507214704 17 327 0.0 0.0 0.00 0.00 0.00 68 1014.8
20260507214203 17 334 0.0 1.6 0.00 0.00 0.00 67 1014.8
20260507213704 17 189 0.0 0.0 0.00 0.00 0.00 67 1014.7
20260507213203 17 189 0.0 0.0 0.00 0.00 0.00 67 1014.6
20260507212206 17 188 0.0 0.0 0.00 0.00 0.00 66 1014.6
20260507211704 17 188 0.0 0.0 0.00 0.00 0.00 66 1014.6
20260507211204 17 188 0.0 0.0 0.00 0.00 0.00 66 1014.6
20260507210704 17 188 1.6 3.2 0.00 0.00 0.00 66 1014.7
20260507210203 17 190 1.6 3.2 0.00 0.00 0.00 66 1014.7
20260507205703 18 150 3.2 3.2 0.00 0.00 0.00 66 1014.7
20260507205204 18 163 3.2 8.0 0.00 0.00 0.00 65 1014.6
20260507204704 18 158 1.6 11.3 0.00 0.00 0.00 65 1014.6
20260507204203 18 182 1.6 8.0 0.00 0.00 0.00 65 1014.6
20260507203704 18 181 3.2 8.0 0.00 0.00 0.00 65 1014.5
20260507203204 18 157 3.2 3.2 0.00 0.00 0.00 65 1014.5
20260507202703 18 183 1.6 4.8 0.00 0.00 0.00 65 1014.5
20260507202204 18 186 1.6 8.0 0.00 0.00 0.00 65 1014.3
20260507201703 18 166 3.2 8.0 0.00 0.00 0.00 65 1014.2
20260507201203 18 162 3.2 8.0 0.00 0.00 0.00 64 1014.2
20260507200704 18 166 3.2 9.7 0.00 0.00 0.00 64 1014.1
20260507200204 18 200 3.2 9.7 0.00 0.00 0.00 64 1014.1
20260507195704 18 176 4.8 11.3 0.00 0.00 0.00 64 1014.1
20260507195204 18 178 4.8 9.7 0.00 0.00 0.00 63 1014.0
20260507194704 18 183 4.8 9.7 0.00 0.00 0.00 63 1013.9
20260507194204 18 166 4.8 12.9 0.00 0.00 0.00 63 1013.9
20260507193704 18 173 8.0 12.9 0.00 0.00 0.00 62 1013.8
20260507193204 18 162 8.0 11.3 0.00 0.00 0.00 62 1013.7
20260507192705 18 178 9.7 16.1 0.00 0.00 0.00 62 1013.7
20260507191704 18 181 8.0 16.1 0.00 0.00 0.00 61 1013.6
20260507191204 19 172 8.0 19.3 0.00 0.00 0.00 60 1013.6
20260507190704 19 165 8.0 20.9 0.00 0.00 0.00 59 1013.5
20260507185704 19 189 8.0 14.5 0.00 0.00 0.00 58 1013.4
20260507185204 20 184 8.0 14.5 0.00 0.00 0.00 56 1013.3
20260507184706 20 193 0.0 11.3 0.00 0.00 0.00 51 1013.2
20260507183704 20 147 4.8 4.8 0.00 0.00 0.00 46 1013.1
20260507183204 20 147 4.8 4.8 0.00 0.00 0.00 46 1013.1
20260507182703 20 151 4.8 9.7 0.00 0.00 0.00 46 1013.1
20260507181704 20 145 3.2 11.3 0.00 0.00 0.00 45 1012.9
20260507181204 20 189 3.2 8.0 0.00 0.00 0.00 45 1012.9
20260507180705 20 178 3.2 8.0 0.00 0.00 0.00 45 1012.8
20260507175704 21 181 3.2 8.0 0.00 0.00 0.00 44 1012.8
20260507175204 21 185 3.2 8.0 0.00 0.00 0.00 45 1012.8
20260507174703 21 307 3.2 8.0 0.00 0.00 0.00 45 1012.8
20260507174204 21 183 3.2 8.0 0.00 0.00 0.00 45 1012.8
20260507173704 21 5 3.2 8.0 0.00 0.00 0.00 45 1012.7
20260507172704 21 192 3.2 8.0 0.00 0.00 0.00 45 1012.6
20260507172206 21 159 3.2 8.0 0.00 0.00 0.00 44 1012.6
20260507171704 21 172 3.2 8.0 0.00 0.00 0.00 45 1012.6
20260507171206 21 177 3.2 9.7 0.00 0.00 0.00 45 1012.6
20260507170703 21 177 3.2 11.3 0.00 0.00 0.00 45 1012.5
20260507170204 21 190 3.2 9.7 0.00 0.00 0.00 44 1012.5
20260507165704 21 169 3.2 11.3 0.00 0.00 0.00 44 1012.5
20260507165204 21 187 3.2 8.0 0.00 0.00 0.00 45 1012.6
20260507164703 21 164 3.2 8.0 0.00 0.00 0.00 45 1012.6
20260507163704 21 351 3.2 9.7 0.00 0.00 0.00 45 1012.6
20260507163203 21 187 3.2 12.9 0.00 0.00 0.00 45 1012.6
20260507162704 21 151 3.2 12.9 0.00 0.00 0.00 45 1012.6
20260507162204 21 193 3.2 9.7 0.00 0.00 0.00 45 1012.5
20260507161704 21 82 6.4 12.9 0.00 0.00 0.00 45 1012.5
20260507160704 21 263 4.8 3.2 0.00 0.00 0.00 45 1012.4
20260507160204 21 218 4.8 3.2 0.00 0.00 0.00 45 1012.4
20260507155704 21 218 4.8 3.2 0.00 0.00 0.00 45 1012.4
20260507155203 21 218 4.8 14.5 0.00 0.00 0.00 45 1012.4
20260507154704 21 189 8.0 12.9 0.00 0.00 0.00 46 1012.4
20260507154204 21 174 8.0 11.3 0.00 0.00 0.00 47 1012.4
20260507153705 21 195 4.8 14.5 0.00 0.00 0.00 46 1012.5
20260507153204 21 0 4.8 12.9 0.00 0.00 0.00 47 1012.5
20260507152704 21 180 4.8 19.3 0.00 0.00 0.00 48 1012.5
20260507152205 21 182 3.2 11.3 0.00 0.00 0.00 47 1012.5
20260507151203 21 175 3.2 12.9 0.00 0.00 0.00 47 1012.5
20260507150204 21 171 3.2 9.7 0.00 0.00 0.00 47 1012.6
20260507145704 21 188 4.8 11.3 0.00 0.00 0.00 47 1012.6
20260507145204 21 158 4.8 11.3 0.00 0.00 0.00 47 1012.6
20260507143704 21 87 3.2 9.7 0.00 0.00 0.00 48 1012.8
20260507143204 21 12 3.2 12.9 0.00 0.00 0.00 48 1012.9
20260507142704 21 175 6.4 9.7 0.00 0.00 0.00 48 1012.9
20260507142203 21 179 8.0 11.3 0.00 0.00 0.00 49 1012.9
20260507141704 20 189 6.4 11.3 0.00 0.00 0.00 48 1012.9
20260507141203 20 182 8.0 8.0 0.00 0.00 0.00 49 1012.9
20260507140704 20 182 8.0 8.0 0.00 0.00 0.00 49 1013.0
20260507140206 20 182 8.0 11.3 0.00 0.00 0.00 49 1013.0
20260507135704 20 191 4.8 16.1 0.00 0.00 0.00 49 1013.0
20260507135205 20 175 4.8 14.5 0.00 0.00 0.00 49 1013.1
20260507134704 20 172 4.8 11.3 0.00 0.00 0.00 49 1013.1
20260507133204 20 178 3.2 11.3 0.00 0.00 0.00 49 1013.3
20260507132705 20 154 4.8 9.7 0.00 0.00 0.00 49 1013.3
20260507132203 20 173 4.8 12.9 0.00 0.00 0.00 49 1013.4
20260507131704 20 187 4.8 12.9 0.00 0.00 0.00 49 1013.4
20260507131204 20 153 4.8 11.3 0.00 0.00 0.00 48 1013.4
20260507130704 20 169 4.8 9.7 0.00 0.00 0.00 47 1013.5
20260507130204 20 2 3.2 16.1 0.00 0.00 0.00 49 1013.5
20260507125703 20 174 3.2 11.3 0.00 0.00 0.00 48 1013.5
20260507125204 20 135 3.2 8.0 0.00 0.00 0.00 49 1013.6
20260507124703 20 135 3.2 8.0 0.00 0.00 0.00 49 1013.7
20260507124204 20 135 3.2 8.0 0.00 0.00 0.00 49 1013.7
20260507123704 20 194 6.4 11.3 0.00 0.00 0.00 49 1013.6
20260507123204 19 340 8.0 11.3 0.00 0.00 0.00 50 1013.6
20260507122205 19 192 4.8 9.7 0.00 0.00 0.00 51 1013.7
20260507121704 19 180 8.0 11.3 0.00 0.00 0.00 51 1013.7
20260507121204 19 192 8.0 11.3 0.00 0.00 0.00 51 1013.7
20260507120704 19 137 8.0 16.1 0.00 0.05 0.00 54 1013.8
20260507120204 19 197 8.0 22.5 0.00 0.05 0.00 53 1013.9
20260507115704 19 140 3.2 11.3 0.00 0.05 0.00 52 1013.9
20260507115204 19 185 3.2 14.5 0.00 0.05 0.00 53 1014.0
20260507114704 19 190 4.8 12.9 0.00 0.05 0.00 55 1014.1
20260507114204 19 195 4.8 9.7 0.00 0.05 0.00 56 1014.1
20260507113704 19 195 4.8 9.7 0.00 0.05 0.00 56 1014.2
20260507113204 19 195 4.8 14.5 0.00 0.05 0.00 56 1014.2
20260507112204 18 176 8.0 11.3 0.00 0.05 0.00 58 1014.3
20260507111704 18 199 4.8 19.3 0.00 0.05 0.00 58 1014.4
20260507111204 18 172 3.2 11.3 0.00 0.05 0.00 59 1014.4
20260507110704 18 166 3.2 8.0 0.00 0.05 0.00 60 1014.5
20260507110205 18 172 3.2 11.3 0.00 0.05 0.00 60 1014.5
20260507105704 18 88 4.8 9.7 0.00 0.05 0.00 60 1014.5
20260507105203 18 44 4.8 9.7 0.00 0.05 0.00 61 1014.6
20260507104704 18 118 3.2 16.1 0.00 0.05 0.00 60 1014.6
20260507104204 18 181 4.8 3.2 0.00 0.05 0.00 59 1014.6
20260507103704 18 181 4.8 3.2 0.00 0.05 0.00 59 1014.7
20260507102704 18 170 4.8 9.7 0.00 0.05 0.00 58 1014.7
20260507102204 18 164 3.2 9.7 0.00 0.05 0.00 58 1014.7
20260507101704 18 199 3.2 11.3 0.00 0.05 0.00 58 1014.7
20260507101204 18 170 3.2 11.3 0.00 0.05 0.00 59 1014.7
20260507100704 18 171 3.2 11.3 0.00 0.05 0.00 59 1014.8
20260507100204 17 50 3.2 4.8 0.00 0.05 0.00 62 1014.8
20260507095703 17 141 3.2 8.0 0.00 0.05 0.00 63 1014.8
20260507095205 17 202 3.2 9.7 0.00 0.05 0.00 65 1014.7
20260507094204 17 197 0.0 9.7 0.00 0.05 0.00 65 1014.6
20260507093704 17 165 1.6 4.8 0.00 0.05 0.00 64 1014.7
20260507093205 16 189 1.6 0.0 0.00 0.05 0.00 67 1014.7
20260507092705 16 189 1.6 0.0 0.00 0.05 0.00 67 1014.7
20260507091704 16 190 0.0 8.0 0.00 0.05 0.00 67 1014.7
20260507091203 16 170 0.0 3.2 0.00 0.05 0.00 67 1014.7
20260507090704 17 154 1.6 0.0 0.00 0.05 0.00 63 1014.6
20260507090204 17 155 1.6 0.0 0.00 0.05 0.00 63 1014.5
20260507085706 17 155 1.6 0.0 0.00 0.05 0.00 63 1014.5
20260507085204 17 154 1.6 3.2 0.00 0.05 0.00 63 1014.4
20260507084704 17 74 1.6 8.0 0.00 0.05 0.00 62 1014.4
20260507084204 18 168 1.6 3.2 0.00 0.05 0.00 61 1014.4
20260507083704 18 156 1.6 8.0 0.00 0.05 0.00 61 1014.5
20260507083204 17 1 1.6 9.7 0.00 0.05 0.00 62 1014.5
20260507082705 17 192 1.6 9.7 0.00 0.05 0.00 63 1014.5
20260507081204 17 180 1.6 12.9 0.00 0.05 0.00 63 1014.4
20260507080204 17 181 3.2 3.2 0.00 0.05 0.00 66 1014.4
20260507075704 17 179 3.2 3.2 0.00 0.05 0.00 66 1014.4
20260507075204 17 179 3.2 3.2 0.00 0.05 0.00 66 1014.4
20260507074704 17 179 3.2 4.8 0.00 0.05 0.00 65 1014.4
20260507074204 16 180 3.2 8.0 0.00 0.05 0.00 66 1014.4
20260507073705 16 176 3.2 11.3 0.00 0.05 0.00 66 1014.4
20260507073205 16 223 3.2 8.0 0.00 0.05 0.00 65 1014.4
20260507072703 16 186 0.0 8.0 0.00 0.05 0.00 65 1014.4
20260507071704 16 13 1.6 8.0 0.00 0.05 0.00 66 1014.3
20260507071204 16 15 1.6 3.2 0.00 0.05 0.00 67 1014.3
20260507070704 16 46 0.0 9.7 0.00 0.05 0.00 68 1014.3
20260507070204 16 160 0.0 8.0 0.00 0.05 0.00 69 1014.3
20260507065704 15 328 0.0 1.6 0.00 0.05 0.00 74 1014.3
20260507065204 15 338 0.0 0.0 0.00 0.05 0.00 76 1014.2
20260507064704 15 328 0.0 3.2 0.00 0.05 0.00 76 1014.2
20260507064204 15 325 0.0 1.6 0.00 0.05 0.00 76 1014.2
20260507063704 15 34 0.0 3.2 0.00 0.05 0.00 76 1014.1
20260507063204 15 299 0.0 3.2 0.00 0.05 0.00 77 1014.1
20260507062704 15 343 0.0 3.2 0.00 0.05 0.00 78 1014.1
20260507062205 15 46 0.0 8.0 0.00 0.05 0.00 79 1014.0
20260507061204 14 22 0.0 1.6 0.00 0.05 0.00 82 1014.0
20260507060705 14 325 0.0 3.2 0.00 0.05 0.00 83 1013.9
20260507060205 13 72 0.0 3.2 0.00 0.05 0.00 84 1013.8
20260507055705 13 351 0.0 3.2 0.00 0.05 0.00 83 1013.8
20260507055204 13 29 0.0 3.2 0.00 0.05 0.00 84 1013.7
20260507054705 13 322 0.0 3.2 0.00 0.05 0.00 85 1013.7
20260507054204 13 323 0.0 3.2 0.00 0.05 0.00 85 1013.7
20260507053704 13 327 0.0 3.2 0.00 0.05 0.00 85 1013.6
20260507053204 13 316 0.0 3.2 0.00 0.08 0.00 86 1013.6
20260507052704 13 327 0.0 3.2 0.00 0.08 0.00 86 1013.6
20260507051704 13 312 0.0 0.0 0.00 0.10 0.00 86 1013.3
20260507051204 13 310 0.0 0.0 0.00 0.13 0.00 86 1013.3
20260507050205 12 303 0.0 0.0 0.00 0.13 0.00 87 1013.2
20260507045704 12 303 0.0 0.0 0.00 0.15 0.00 88 1013.2
20260507045204 12 303 0.0 0.0 0.00 0.15 0.00 88 1013.1
20260507044705 12 303 0.0 0.0 0.00 0.15 0.00 89 1013.0
20260507044204 12 302 0.0 0.0 0.00 0.15 0.00 89 1013.0
20260507043704 12 301 0.0 1.6 0.00 0.15 0.00 89 1013.0
20260507043204 12 232 0.0 0.0 0.00 0.15 0.00 89 1013.0
20260507042704 12 232 0.0 0.0 0.00 0.18 0.00 89 1013.0
20260507042204 12 231 0.0 3.2 0.00 0.18 0.00 88 1012.9
20260507041704 12 294 0.0 1.6 0.00 0.18 0.00 88 1012.9
20260507041204 12 309 0.0 0.0 0.00 0.20 0.00 88 1012.9
20260507040704 12 309 0.0 0.0 0.00 0.20 0.00 88 1012.8
20260507040204 12 306 0.0 3.2 0.00 0.20 0.00 88 1012.7
20260507035705 12 7 0.0 3.2 0.00 0.20 0.00 88 1012.7
20260507035204 12 18 0.0 3.2 0.00 0.20 0.00 88 1012.6
20260507034704 12 17 1.6 1.6 0.00 0.20 0.00 87 1012.6
20260507034204 12 0 1.6 0.0 0.00 0.23 0.00 87 1012.6
20260507033704 12 4 3.2 3.2 0.00 0.23 0.00 87 1012.5
20260507033205 12 336 3.2 8.0 0.00 0.23 0.00 87 1012.4
20260507032704 12 15 3.2 8.0 0.00 0.28 0.00 87 1012.4
20260507032204 12 0 3.2 11.3 0.00 0.28 0.00 87 1012.4
20260507031704 12 32 3.2 11.3 0.00 0.30 0.00 87 1012.4
20260507030704 12 18 1.6 9.7 0.00 0.30 0.00 87 1012.5
20260507030204 12 36 1.6 9.7 0.00 0.30 0.00 86 1012.5
20260507025705 12 352 3.2 8.0 0.00 0.30 0.00 86 1012.5
20260507025205 12 294 3.2 8.0 0.00 0.30 0.00 86 1012.6
20260507024705 12 15 4.8 3.2 0.00 0.30 0.00 86 1012.6
20260507022706 13 330 1.6 8.0 0.00 0.30 0.00 84 1012.5
20260507022204 13 312 1.6 8.0 0.00 0.30 0.00 84 1012.5
20260507021704 13 303 1.6 11.3 0.00 0.30 0.00 84 1012.5
20260507020704 13 332 8.0 3.2 0.00 0.30 0.00 84 1012.4
20260507020205 13 333 8.0 8.0 0.00 0.30 0.00 83 1012.4
20260507014704 13 326 8.0 12.9 0.00 0.30 0.00 82 1012.4